This is the latest recevied weather packets stored in our database for station/object NQ9F. If no packets are shown the sender has not sent any weather packets the latest 10 day(s).
| Time | Temp. | Humidity | Pressure | Rain* | Wind** | Luminosity | Snow |
|---|---|---|---|---|---|---|---|
| 1777556385 | 13.89° C | 92% | 1015.1 hPa | 0 mm | - | 78 W/m² | - |
| 1777556080 | 13.89° C | 92% | 1015 hPa | 0 mm | - | 119 W/m² | - |
| 1777555780 | 13.89° C | 92% | 1014.9 hPa | 0 mm | - | 120 W/m² | - |
| 1777555477 | 13.89° C | 92% | 1014.9 hPa | 0 mm | - | 109 W/m² | - |
| 1777555173 | 13.89° C | 91% | 1014.7 hPa | 0 mm | - | 106 W/m² | - |
| 1777554871 | 13.89° C | 91% | 1014.7 hPa | 0 mm | - | 125 W/m² | - |
| 1777554567 | 13.89° C | 91% | 1014.9 hPa | 0 mm | - | 113 W/m² | - |
| 1777554264 | 13.33° C | 91% | 1014.9 hPa | 0 mm | - | 107 W/m² | - |
| 1777553961 | 13.33° C | 92% | 1014.7 hPa | 0 mm | - | 109 W/m² | - |
| 1777553657 | 13.33° C | 92% | 1014.5 hPa | 0 mm | - | 103 W/m² | - |
| 1777553354 | 12.78° C | 92% | 1014.8 hPa | 0 mm | - | 90 W/m² | - |
| 1777553050 | 12.78° C | 92% | 1014.7 hPa | 0 mm | - | 71 W/m² | - |
| 1777552745 | 12.78° C | 92% | 1014.7 hPa | 0 mm | - | 44 W/m² | - |
| 1777552441 | 12.78° C | 92% | 1014.7 hPa | 0 mm | - | 34 W/m² | - |
| 1777552137 | 12.78° C | 91% | 1014.9 hPa | 0 mm | - | 36 W/m² | - |
| 1777551835 | 12.78° C | 91% | 1014.7 hPa | 0 mm | - | 27 W/m² | - |
| 1777551533 | 12.78° C | 91% | 1014.8 hPa | 0 mm | - | 25 W/m² | - |
| 1777551229 | 12.78° C | 91% | 1014.6 hPa | 0 mm | - | 18 W/m² | - |
| 1777550926 | 12.78° C | 91% | 1014.5 hPa | 0 mm | - | 14 W/m² | - |
| 1777550623 | 12.78° C | 91% | 1014.5 hPa | 0 mm | - | 12 W/m² | - |
| 1777550318 | 12.78° C | 91% | 1014.5 hPa | 0 mm | - | 12 W/m² | - |
| 1777550015 | 12.78° C | 91% | 1014.6 hPa | 0 mm | - | 7 W/m² | - |
| 1777549712 | 12.78° C | 91% | 1014.4 hPa | 0 mm | - | 3 W/m² | - |
| 1777549407 | 12.78° C | 91% | 1014.4 hPa | 0 mm | - | 2 W/m² | - |
| 1777549104 | 12.78° C | 91% | 1014.3 hPa | 0 mm | - | 1 W/m² | - |
* Rain latest hour (hover to see other rain measurements)
** Current wind speed in m/s (hover to see current wind gust speed)